#timestamp,LO_Frequency,Hit,StdDev 
1681045215.4,286047000.4,P
1681045235.2,286047000.4,N
1681045255.1,286046999.9,N
1681045256.0,286046999.9,N
1681045275.8,286047002.4,N
1681045295.6,286047001.6,N
1681045315.5,286047001.4,N
1681045335.3,286047003.9,N
1681045355.1,286047003.9,N
1681045375.9,286047004.4,N
1681045395.7,286047001.4,N
1681045415.6,286047001.3,N
1681045435.4,286047001.8,N
1681045455.2,286047003.8,N
1681045475.1,286047004.4,N
1681045476.0,286047004.4,N
1681045495.8,286047002.0,N
1681045515.6,286047001.8,N
1681045535.5,286047001.9,N
1681045555.3,286047002.7,N
1681045575.2,286047001.4,N
1681045595.9,286046999.8,N
1681045615.7,286047002.5,N
1681045635.6,286047000.4,N
1681045655.4,286047000.1,N
1681045675.2,286047000.7,N
1681045695.1,286046998.1,N
1681045696.0,286046998.1,N
1681045715.8,286046999.3,N
1681045735.7,286046999.6,N
1681045755.5,286046996.6,N
1681045775.4,286046997.3,N
1681045795.2,286046997.9,N
1681045815.0,286046999.5,N
1681045815.9,286046999.5,N
1681045835.8,286046998.3,N
1681045855.6,286046999.5,N
1681045875.5,286046999.2,N
1681045895.3,286046997.6,N
1681045915.1,286046994.9,N
1681045935.9,286046997.7,N
1681045955.7,286046997.5,N
1681045975.6,286046997.4,N
1681045995.4,286046997.1,N
1681046015.2,286046997.4,N
1681046035.1,286046997.5,N
1681046036.0,286046997.5,N
1681046055.8,286046995.5,N
1681046075.6,286046995.6,N
1681046095.5,286046996.0,N
1681046115.3,286046995.5,N
1681046135.2,286046995.9,N
1681046155.9,286046993.4,Y
1681046175.7,286046995.4,P
1681046195.6,286046995.3,P
1681046215.4,286046995.2,P
1681046235.3,286046995.1,Y
1681046255.1,286047002.4,P
1681046275.8,286047000.6,N
1681046295.7,286047002.3,N
1681046315.5,286047000.0,N
1681046335.4,286047000.3,N
1681046355.2,286046998.5,N
1681046375.0,286046998.5,N
1681046375.9,286046998.5,N
1681046395.8,286046999.4,N
1681046415.6,286046997.7,N
1681046435.5,286046997.2,N
1681046455.3,286046997.7,N
1681046475.1,286046996.5,N
1681046495.9,286046997.0,N
1681046515.7,286046997.4,N
1681046535.5,286046994.9,N
1681046555.4,286046997.2,N
1681046575.2,286046995.0,N
1681046595.1,286046995.4,N
1681046596.0,286046995.4,N
1681046615.8,286046995.1,N
1681046635.6,286046995.8,N
1681046655.5,286046995.9,N
1681046675.3,286046996.1,N
1681046695.1,286046996.0,N
1681046715.9,286046993.3,Y
1681046735.7,286046997.4,P
1681046755.6,286046997.9,P
1681046775.4,286047010.0,P
1681046795.2,286047011.0,N
1681046815.1,286047012.8,N
1681046816.0,286047012.8,N
1681046835.8,286047013.4,N
1681046855.6,286047012.1,N
1681046875.5,286047010.4,N
1681046895.3,286047008.7,N
1681046915.2,286047006.1,N
1681046935.9,286047007.1,N
1681046955.7,286047007.6,N
1681046975.6,286047005.0,N
1681046995.4,286047004.7,N
1681047015.2,286047005.9,N
1681047035.1,286047002.9,N
1681047036.0,286047002.9,N
1681047055.8,286047005.8,N
1681047075.7,286047001.4,N
1681047095.5,286047002.7,N
1681047115.3,286047002.3,N
1681047135.2,286047002.3,N
1681047155.0,286047001.7,N
1681047155.9,286047001.7,N
1681047175.7,286047002.2,N
1681047195.6,286047002.4,N
1681047215.4,286047001.3,N
1681047235.3,286047001.7,N
1681047255.1,286046999.8,N
1681047275.8,286046999.9,N
1681047295.7,286047001.1,N
1681047315.5,286046998.7,N
1681047335.4,286046999.3,N
1681047355.2,286046997.0,N
1681047375.0,286046997.1,N
1681047375.9,286046997.1,N
1681047395.8,286046997.5,N
1681047415.6,286046995.3,N
1681047435.4,286046996.1,N
1681047455.3,286046995.2,N
1681047475.1,286046995.4,N
1681047495.9,286046995.3,N
1681047515.7,286046996.3,N
1681047535.5,286046995.6,N
1681047555.4,286046995.5,N
1681047575.2,286046994.9,N
1681047595.1,286046995.6,N
1681047596.0,286046995.6,N
1681047615.8,286046993.7,N
1681047635.6,286046993.7,N
1681047655.5,286046993.5,N
1681047675.3,286046994.0,N
1681047695.2,286046994.6,N
1681047715.9,286046994.2,N
1681047735.7,286046994.2,N
1681047755.6,286046991.7,Y
1681047775.4,286046995.0,P
1681047795.3,286046995.8,P
1681047815.1,286046998.0,N
1681047816.0,286046998.0,N
1681047835.8,286046994.9,Y
1681047855.7,286046999.4,P
1681047875.5,286046997.2,N
1681047895.3,286046999.6,N
1681047915.2,286046999.5,N
1681047935.0,286046996.9,N
1681047935.9,286046996.9,N
1681047955.8,286046999.2,N
1681047975.6,286046998.5,N
1681047995.4,286046998.2,N
1681048015.3,286046998.2,N
1681048035.1,286046998.6,N
1681048055.9,286046999.0,N
1681048075.7,286046996.9,Y
1681048095.5,286046999.0,P
1681048115.4,286046998.3,P
1681048135.2,286046998.6,P
1681048155.0,286046998.4,Y
1681048156.0,286046998.4,P
1681048175.8,286047000.9,P
1681048195.6,286047000.9,N
1681048215.5,286047001.0,N
1681048235.3,286047000.6,N
1681048255.1,286047000.8,N
1681048275.9,286046998.8,N
1681048295.7,286046999.2,N
1681048315.6,286046999.1,N
1681048335.4,286046999.5,N
1681048355.2,286046998.8,N
1681048375.1,286046999.4,N
1681048376.0,286046999.4,N
1681048395.8,286046996.6,Y
1681048415.7,286046999.5,P
1681048435.5,286046999.5,P
1681048455.3,286046999.5,P
1681048475.2,286046999.6,Y
1681048495.0,286046996.5,P
1681048495.9,286046996.5,N
1681048515.7,286046996.9,N
1681048535.6,286046999.5,N
1681048555.4,286046999.5,N
1681048575.3,286046998.5,N
1681048595.1,286047000.9,N
1681048615.8,286047000.6,N
1681048635.7,286047000.3,N
1681048655.5,286046998.1,N
1681048675.4,286046998.5,N
1681048695.2,286046998.1,N
1681048715.0,286046998.1,N
1681048715.9,286046998.1,N
1681048735.8,286046998.5,N
1681048755.6,286047001.2,N
1681048775.4,286047000.5,N
1681048795.3,286047000.9,N
